OpenBCM V1.08-3-g9b42 (Linux)

Packet Radio Mailbox

OK0NBR

[Sao_Jose_dos_Campo]

 Login: GUEST





  
I0OJJ  > KEPS     15.11.25 22:03l 310 Lines 14714 Bytes #197 (0) @ AMSAT
BID : ORB25320.1
Read: GUEST
Subj: 2Line Orbital Elements 25320.AMSAT
Path: OK0NBR<IW0QNL<HB9ON<DK0WUE<PI8ZTM<IR0AAB<I0OJJ
Sent: 251116/0021z @:I0OJJ.ITA.EU [Rome] obcm1.08-11-2-gbfe9
From: I0OJJ @ I0OJJ.ITA.EU (Gustavo)
To:   KEPS @ AMSAT
X-Info: This message was generated automatically


QST de W1STR

AMSAT Orbital Elements for Amateur Satellites in TLE Format
From Orbital Analysis Office
New England Sci-Tech STEM Education Center
Natick MA November 16, 2025
To all radio amateurs


These element sets describe the orbits of various satellites 
in use by the amateur radio community. For details see:
www.amsat.org/keplerian-elements-formats/

A daily update of element sets is available at:
www.amsat.org/tle/daily-bulletin.txt
or without bulletin text:
www.amsat.org/tle/dailytle.txt


AO-07
1 07530U 74089B   25319.54413785 -.00000019  00000-0  17348-3 0  9997
2 07530 101.9976 325.5247 0012199 177.9421 334.1936 12.53693403333746
UO-11
1 14781U 84021B   25319.86535561  .00002734  00000-0  28896-3 0  9997
2 14781  97.7769 283.3202 0008076 157.8172 202.3397 14.90015003225356
AO-27
1 22825U 93061C   25319.65705124  .00000309  00000-0  13501-3 0  9993
2 22825  98.7186  21.8553 0008542  14.5840 345.5588 14.30862581676460
FO-29
1 24278U 96046B   25319.56472684  .00000043  00000-0  83268-4 0  9998
2 24278  98.5482 192.3435 0348955 290.6438  65.7613 13.53260428444277
GO-32
1 25397U 98043D   25319.66213382  .00000239  00000-0  12345-3 0  9993
2 25397  98.9899 302.2525 0002297 101.1660 258.9776 14.24366152420930
ISS
1 25544U 98067A   25319.38552854  .00013221  00000-0  24188-3 0  9995
2 25544  51.6327 277.8788 0004161  73.2410 286.9034 15.49683527538617
NO-44
1 26931U 01043C   25319.70391793  .00000537  00000-0  23158-3 0  9995
2 26931  67.0510  76.3919 0007279 271.4398  88.5870 14.31833167259881
SO-50
1 27607U 02058C   25319.48180779  .00002673  00000-0  33818-3 0  9995
2 27607  64.5542  69.8331 0070653 301.6357  57.7868 14.82241126232779
CO-55
1 27844U 03031E   25319.47101322  .00000780  00000-0  35766-3 0  9997
2 27844  98.6775 325.7251 0010705  86.8524 273.3880 14.24146187161254
CO-57
1 27848U 03031J   25319.49461726  .00000638  00000-0  29978-3 0  9990
2 27848  98.6801 325.6316 0010602 102.6957 257.5407 14.23459120160972
RS-22
1 27939U 03042A   25319.54257521  .00002512  00000-0  40035-3 0  9995
2 27939  98.3367 133.0218 0010550 222.1949 229.8075 14.72858313184093
CO-58
1 28895U 05043F   25319.65598252  .00003315  00000-0  53859-3 0  9991
2 28895  98.2705 106.2815 0014833 158.7043 201.4784 14.71744698 70335
CO-65
1 32785U 08021C   25319.87656983  .00010422  00000-0  70700-3 0  9994
2 32785  97.8053 292.5986 0010745  41.1261 319.0774 15.06575045953042
CO-66
1 32791U 08021J   25319.46905505  .00019199  00000-0  79430-3 0  9992
2 32791  97.7426 303.7065 0003786  24.3718 335.7697 15.23999177954643
RS-30
1 32953U 08025A   25319.83075087  .00000055  00000-0  32180-3 0  9992
2 32953  82.4993 128.1606 0019811  58.7946 301.5072 12.43170782793183
SRMSAT
1 37841U 11058D   25319.86550163  .00000608  00000-0  18627-3 0  9993
2 37841  19.9722 270.6056 0011727  18.0754   1.5906 14.11498731727640
ZACUBE-1
1 39417U 13066B   25319.82162380  .00008108  00000-0  66792-3 0  9990
2 39417  97.7991 276.3390 0040789 237.7585 121.9681 14.98685626648745
Delfi-N3xt
1 39428U 13066N   25319.57109316  .00009668  00000-0  91944-3 0  9993
2 39428  97.8314 235.6494 0079222 194.7444 165.1464 14.91279440642749
GOMX-1
1 39430U 13066Q   25319.78300613  .00003399  00000-0  52234-3 0  9996
2 39430  97.6621 168.5943 0131875  42.9364 318.2045 14.68414804638584
LO-74
1 39440U 13066AA  25319.84160472  .00008443  00000-0  81826-3 0  9995
2 39440  97.8655 263.5624 0060829  15.6884 344.6201 14.91548741645163
AO-73
1 39444U 13066AE  25319.87215447  .00010624  00000-0  73351-3 0  9993
2 39444  97.8012 282.8407 0038183 205.6683 154.2649 15.05358926647526
DTUSAT-2
1 40030U 14033W   25319.45955419  .00009897  00000-0  59426-3 0  9992
2 40030  98.0732 299.4077 0006506 236.8109 123.2496 15.11117330620369
EO-80
1 40032U 14033Y   25319.86876367  .00011880  00000-0  71060-3 0  9996
2 40032  98.0618 299.2714 0008003 165.9290 194.2163 15.11193707620403
LILACSAT-2
1 40908U 15049K   25319.84326831  .00020523  00000-0  45659-3 0  9999
2 40908  97.4953 344.4161 0006796 317.5132  42.5589 15.43655620562758
IO-86
1 40931U 15052B   25151.18580175  .00001241  00000-0  78118-4 0  9996
2 40931   6.0006  24.0987 0012733 338.8432  21.1169 14.78805930523159
Horyu-4
1 41340U 16012D   25319.81392611  .00059022  00000-0  10977-2 0  9997
2 41340  30.9929 134.4080 0005384 322.2343  37.7927 15.47573576537375
Lapan A3
1 41603U 16040E   25319.83917551  .00005633  00000-0  18861-3 0  9998
2 41603  97.1428 318.3812 0012536  64.8255 295.4286 15.31258350522143
CAS-2T
1 41847U 16066G   25319.67084110  .00001938  00000-0  28023-3 0  9999
2 41847  98.4069  32.6751 0345071  57.0893 306.2998 14.44045505473977
TechnoSat
1 42829U 17042E   25319.43709909  .00004930  00000-0  36782-3 0  9995
2 42829  97.4041 120.8313 0020614 102.0208 258.3329 15.03119350454571
AO-91
1 43017U 17073E   25319.57987750  .00015728  00000-0  75154-3 0  9999
2 43017  97.4975 186.4054 0163171 344.2673  15.3517 15.08028564433140
S-Net D
1 43186U 18014G   25319.72426671  .00008337  00000-0  46363-3 0  9997
2 43186  97.5486 221.0397 0010323  45.5941 314.6133 15.13883601426430
S-Net B
1 43187U 18014H   25319.66579953  .00008766  00000-0  48755-3 0  9996
2 43187  97.5492 220.9610 0010821  40.9455 319.2587 15.13858671426428
S-Net A
1 43188U 18014J   25319.65798951  .00008341  00000-0  46373-3 0  9990
2 43188  97.5497 221.1255 0010779  42.0273 318.1783 15.13888033426426
S-Net C
1 43189U 18014K   25319.73477522  .00009082  00000-0  50487-3 0  9992
2 43189  97.5516 221.2424 0012007  34.2357 325.9646 15.13854331424987
Ten-Koh
1 43677U 18084G   25319.45866471  .00004582  00000-0  35849-3 0  9990
2 43677  98.0683 137.9890 0009229 102.5584 257.6672 15.01550803384072
PO-101
1 43678U 18084H   25319.82367072  .00003294  00000-0  27523-3 0  9994
2 43678  98.1053 142.2061 0007564 112.3738 247.8286 14.99253753384234
QO-100
1 43700U 18090A   25319.81401728  .00000000  00000-0  00000+0 0  9992
2 43700   0.0199 284.1133 0002342 352.5829  97.2757  1.00269512 25530
MinXSS-2
1 43758U 18099A   25319.67672161  .00030558  00000-0  96539-3 0  9996
2 43758  97.4840  26.7078 0009212 317.9391  42.1143 15.32727677381271
AO-95
1 43770U 18099N   25319.62997194  .00014957  00000-0  67565-3 0  9993
2 43770  97.4725  16.1261 0010348  26.9607 333.2164 15.21013218380692
SNUSat 2
1 43782U 18099AA  25318.11428994  .00020996  00000-0  10453-2 0  9999
2 43782  97.4398  10.0202 0010532 334.3860  25.6851 15.17566400380361
SnugLite
1 43784U 18099AC  25319.62388578  .00015603  00000-0  69787-3 0  9995
2 43784  97.4218  11.4581 0002463 348.8144  11.3036 15.21387058380786
ITASat 1
1 43786U 18099AE  25319.63181731  .00010521  00000-0  55734-3 0  9991
2 43786  97.4372  10.5143 0014050  22.2326 337.9513 15.15502183380523
EAGLET 1
1 43790U 18099AJ  25319.61808365  .00006890  00000-0  41849-3 0  9999
2 43790  97.4573   9.8546 0011783  10.7919 349.3561 15.10745123380066
ESEO
1 43792U 18099AL  25319.65938671  .00003021  00000-0  22651-3 0  9992
2 43792  97.4300   0.9454 0011709 348.4447  11.6509 15.03342344379712
JO-97
1 43803U 18099AX  25319.60695429  .00019663  00000-0  77337-3 0  9991
2 43803  97.4468  17.5305 0005639 315.6985  44.3801 15.25679763380977
Suomi 100
1 43804U 18099AY  25319.58292905  .00016608  00000-0  72062-3 0  9997
2 43804  97.4538  16.2699 0010304 317.9449  42.0995 15.22367083380855
ISAT
1 43879U 18111D   25319.71447421  .00044084  00000-0  11288-2 0  9995
2 43879  97.5894 238.3902 0007859  20.1131 340.0422 15.39239629378089
UWE-4
1 43880U 18111E   25319.74920735  .00031428  00000-0  99380-3 0  9992
2 43880  97.5833 235.5659 0011618  23.3836 336.7932 15.32668388377940
Sparrow
1 43881U 18111F   25319.73619883  .00048620  00000-0  11650-2 0  9996
2 43881  97.6073 242.0107 0008270  51.7665 308.4324 15.41232920378204
Prox-1
1 44339U 19036A   25319.68939749  .00017344  00000-0  19904-2 0  9991
2 44339  23.9956  93.7788 0007766  88.2313 271.9074 14.84206979341640
Taurus 1
1 44530U 19059C   25319.86309750  .00011689  00000-0  20201-2 0  9990
2 44530  98.6215 107.2502 0008883 257.4425 102.5785 14.68537809327294
Duchifat 3
1 44854U 19089C   25319.60734214  .00407113  00000-0  19356-2 0  9991
2 44854  36.9314  48.1903 0008240  82.1821 277.9882 15.80820686327812
TO-108
1 44881U 19093C   25319.83449376  .00002006  00000-0  23515-3 0  9998
2 44881  97.7791  32.0649 0015019  70.8580 289.4260 14.86017340319722
FloripaSat 1
1 44885U 19093G   25319.84509469  .00009636  00000-0  76258-3 0  9991
2 44885  97.8068  47.9178 0012120  57.2437 302.9953 15.00766779320610
RS-44
1 44909U 19096E   25319.49446985  .00000040  00000-0  12257-3 0  9994
2 44909  82.5182 121.7148 0216543 284.0651  73.6468 12.79745484275015
SALSAT
1 46495U 20068K   25319.45000238  .00011633  00000-0  45904-3 0  9995
2 46495  97.8769 305.2673 0010013 341.6304  18.4570 15.25676676282725
CSS (TIANHE-1)
1 48274U 21035A   25319.80612602  .00016802  00000-0  21257-3 0  9998
2 48274  41.4658 180.1367 0006183 168.1938 191.9046 15.59106574259824
TUBIN
1 48900U 21059X   25319.82192538  .00288599  00000-0  97900-3 0  9995
2 48900  97.6681 144.4265 0002049 337.9247  22.1936 15.89188282245024
CUTE
1 49263U 21088D   25319.66258792  .00040278  00000-0  56824-3 0  9997
2 49263  97.4384  41.3426 0005639  21.0830 339.0657 15.56475523229085
TeikyoSat 4
1 49396U 21102B   25319.34015257  .00002549  00000-0  16731-3 0  9995
2 49396  97.3940 351.9673 0010957 314.8845  45.1493 15.08466130220479
Z-Sat
1 49399U 21102E   25319.85144090  .00007575  00000-0  39561-3 0  9992
2 49399  97.3627 356.6054 0015726 271.3359  88.6073 15.16079274221098
